{"data":{"norad_id":60281,"epoch":"2026-05-25T01:14:14.379648Z","epoch_age_seconds":66443,"freshness":"FRESH","line1":"1 60281U 24132D   26145.05155532  .00000673  00000+0  34835-4 0  9995","line2":"2 60281  53.1608  57.6024 0001174  94.1211 265.9924 15.30193507103259","mean_motion":15.30193507,"eccentricity":0.0001174,"inclination_deg":53.1608,"raan_deg":57.6024,"arg_perigee_deg":94.1211,"mean_anomaly_deg":265.9924,"bstar":3.4835e-5,"rev_number":10325,"period_min":94.105745019345,"perigee_km":474.42987060652,"apogee_km":476.03904222449,"semimajor_km":6853.3714564155,"source":"CELESTRAK","updated_at":"2026-05-25T13:38:19.204085Z"}}